User: anonymous   Login
Location: Mountain Grove
(34.0887°N, 86.6172°W)
Time: 23:37:41
(UTC+00:00)
Language:

Nadezhda 4 Rocket - Orbit

View from above orbital plane
View from above orbital plane
View from above satellite
View from above satellite

Ground track
Ground track

The orbit data is extracted from the following two-line orbital elements,

1 23180U 94041B   20271.36742008 -.00000043  00000-0 -57861-4 0  9994
2 23180  82.9431 119.4341 0030136 104.3014  68.1002 13.77983763317914
Epoch (UTC): 27 September 2020 08:49:05
Eccentricity: 0.0030136
inclination: 82.9431°
perigee height: 949 km
apogee height: 993 km
right ascension of ascending node: 119.4341°
argument of perigee: 104.3014°
revolutions per day: 13.77983763
mean anomaly at epoch: 68.1002°
orbit number at epoch: 31791

The dashed part of the orbit path shows where the satellite is in the earth's shadow,  

DLR